{"data":{"norad_id":68510,"intl_designator":"2026-068C","name":"STARLINK-37260","alt_names":[],"object_type":"PAYLOAD","status":"ACTIVE","operator":null,"country":"US","launch_date":"2026-03-30","launch_site_code":"AFETR","launch_vehicle":null,"mission":null,"orbit_class":"UNKNOWN","rcs_meters":null,"size_class":null,"mass_kg":null,"dimensions":null,"purposes":["comms"],"wikipedia_slug":null,"has_3d_model":false,"image_url":null,"decayed_at":null,"tle_current":{"epoch":"2026-09-20T02:36:20.754720Z","epoch_age_seconds":82281,"freshness":"FRESH","line1":"1 68510U 26068C   26263.10857355  .00013985  00000+0  42414-3 0  9998","line2":"2 68510  53.1593 299.6114 0000857 344.4407  15.6570 15.34408524 26802","mean_motion":15.34408524,"eccentricity":8.57e-5,"inclination_deg":53.1593,"raan_deg":299.6114,"arg_perigee_deg":344.4407,"mean_anomaly_deg":15.657,"bstar":0.00042414,"rev_number":2680,"period_min":93.84723673498,"perigee_km":462.09164736266,"apogee_km":463.26416303742,"semimajor_km":6840.8149052,"source":"CELESTRAK","updated_at":"2026-09-20T09:00:43.900798Z"}}}